• In Austria
  • List of Countries
  • For 7 days
  • Water Temperature
  • Satellite Maps
  • Weather Map
  • News
  • Weather Widgets
  • user-avatar
    Login

    Hourly Weather Albena

    Today, 25 May, Friday

    Time Temperature Precipitation Wind Pressure Humidity
    00:00 +17°C° 0.1 mm 3 mps 744 mmHg 76%
    01:00 +17°C° 0.1 mm 3 mps 744 mmHg 78%
    02:00 +17°C° 0 mm 3 mps 744 mmHg 82%
    03:00 +17°C° 0.2 mm 3 mps 744 mmHg 83%
    04:00 +17°C° 0.2 mm 3 mps 744 mmHg 85%
    05:00 +16°C° 0.2 mm 3 mps 744 mmHg 86%
    06:00 +18°C° 0.5 mm 4 mps 744 mmHg 82%
    07:00 +19°C° 0.5 mm 4 mps 744 mmHg 79%
    08:00 +21°C° 0 mm 5 mps 744 mmHg 74%
    09:00 +22°C° 0.7 mm 5 mps 745 mmHg 70%
    10:00 +23°C° 0.7 mm 5 mps 745 mmHg 67%
    11:00 +24°C° 0.7 mm 6 mps 745 mmHg 63%
    12:00 +24°C° 0.6 mm 6 mps 745 mmHg 63%
    13:00 +26°C° 0.6 mm 5 mps 745 mmHg 63%
    14:00 +26°C° 0.6 mm 5 mps 745 mmHg 62%
    15:00 +25°C° 0.3 mm 5 mps 745 mmHg 63%
    16:00 +25°C° 0.3 mm 5 mps 745 mmHg 64%
    17:00 +25°C° 0.3 mm 5 mps 745 mmHg 65%
    18:00 +22°C° 0 mm 4 mps 745 mmHg 71%
    19:00 +20°C° 0 mm 4 mps 745 mmHg 76%
    20:00 +19°C° 0 mm 3 mps 745 mmHg 81%
    21:00 +18°C° 0 mm 3 mps 745 mmHg 79%
    22:00 +18°C° 0 mm 3 mps 746 mmHg 77%
    23:00 +17°C° 0 mm 3 mps 746 mmHg 75%

    Tomorrow, 26 May, Saturday

    Time Temperature Precipitation Wind Pressure Humidity
    00:00 +17°C° 0 mm 4 mps 746 mmHg 74%
    01:00 +17°C° 0 mm 4 mps 746 mmHg 72%
    02:00 +17°C° 0 mm 4 mps 746 mmHg 71%
    03:00 +17°C° 0 mm 4 mps 746 mmHg 74%
    04:00 +16°C° 0 mm 5 mps 746 mmHg 77%
    05:00 +16°C° 0 mm 5 mps 746 mmHg 80%
    06:00 +17°C° 0 mm 6 mps 746 mmHg 80%
    07:00 +19°C° 0 mm 6 mps 747 mmHg 80%
    08:00 +21°C° 0 mm 7 mps 747 mmHg 80%
    09:00 +21°C° 0.2 mm 7 mps 747 mmHg 79%
    10:00 +21°C° 0.2 mm 7 mps 747 mmHg 79%
    11:00 +22°C° 0.2 mm 7 mps 747 mmHg 79%
    12:00 +22°C° 0.5 mm 8 mps 747 mmHg 78%
    13:00 +22°C° 0.5 mm 8 mps 748 mmHg 77%
    14:00 +23°C° 0.5 mm 8 mps 748 mmHg 76%
    15:00 +22°C° 0.3 mm 8 mps 748 mmHg 78%
    16:00 +21°C° 0.3 mm 7 mps 748 mmHg 80%
    17:00 +20°C° 0.3 mm 7 mps 748 mmHg 82%
    18:00 +18°C° 0 mm 7 mps 748 mmHg 84%
    19:00 +19°C° 0 mm 6 mps 748 mmHg 86%
    20:00 +17°C° 0 mm 6 mps 748 mmHg 89%
    21:00 +16°C° 0.1 mm 6 mps 749 mmHg 90%
    22:00 +16°C° 0.1 mm 6 mps 749 mmHg 92%
    23:00 +16°C° 0.1 mm 6 mps 749 mmHg 93%

    Day after tomorrow, 27 May, Sunday

    Time Temperature Precipitation Wind Pressure Humidity
    00:00 +16°C° 0 mm 6 mps 749 mmHg 93%
    01:00 +16°C° 0 mm 6 mps 749 mmHg 92%
    02:00 +16°C° 0 mm 6 mps 749 mmHg 91%
    03:00 +16°C° 0 mm 6 mps 749 mmHg 91%
    04:00 +15°C° 0 mm 6 mps 749 mmHg 91%
    05:00 +15°C° 0 mm 6 mps 749 mmHg 91%
    06:00 +15°C° 0.1 mm 7 mps 749 mmHg 90%
    07:00 +15°C° 0.1 mm 7 mps 749 mmHg 89%
    08:00 +15°C° 0.1 mm 7 mps 750 mmHg 89%
    09:00 +16°C° 0 mm 7 mps 750 mmHg 87%
    10:00 +16°C° 0 mm 7 mps 750 mmHg 85%
    11:00 +17°C° 0 mm 7 mps 750 mmHg 83%
    12:00 +17°C° 0 mm 7 mps 750 mmHg 81%
    13:00 +18°C° 0 mm 7 mps 750 mmHg 78%
    14:00 +18°C° 0 mm 7 mps 750 mmHg 76%
    15:00 +18°C° 0 mm 7 mps 750 mmHg 76%
    16:00 +18°C° 0 mm 7 mps 750 mmHg 75%
    17:00 +18°C° 0 mm 7 mps 749 mmHg 74%
    18:00 +17°C° 0 mm 6 mps 749 mmHg 78%
    19:00 +16°C° 0 mm 5 mps 750 mmHg 81%
    20:00 +15°C° 0 mm 5 mps 750 mmHg 85%
    21:00 +14°C° 0 mm 5 mps 750 mmHg 86%
    22:00 +13°C° 0 mm 5 mps 750 mmHg 86%
    23:00 +13°C° 0 mm 4 mps 750 mmHg 87%

    28 May, Monday

    Time Temperature Precipitation Wind Pressure Humidity
    00:00 +12°C° 0 mm 5 mps 750 mmHg 87%
    01:00 +12°C° 0 mm 5 mps 749 mmHg 86%
    02:00 +12°C° 0 mm 5 mps 749 mmHg 86%
    03:00 +12°C° 0 mm 5 mps 749 mmHg 86%
    04:00 +12°C° 0 mm 5 mps 749 mmHg 86%
    05:00 +12°C° 0 mm 5 mps 749 mmHg 87%
    06:00 +13°C° 0 mm 6 mps 750 mmHg 82%
    07:00 +15°C° 0 mm 6 mps 750 mmHg 77%
    08:00 +17°C° 0 mm 7 mps 750 mmHg 72%
    09:00 +18°C° 0 mm 7 mps 750 mmHg 70%
    10:00 +20°C° 0 mm 7 mps 750 mmHg 68%
    11:00 +20°C° 0 mm 7 mps 750 mmHg 66%
    12:00 +21°C° 0 mm 7 mps 750 mmHg 65%
    13:00 +21°C° 0 mm 7 mps 750 mmHg 65%
    14:00 +21°C° 0 mm 7 mps 750 mmHg 64%
    15:00 +21°C° 0 mm 7 mps 750 mmHg 64%
    16:00 +21°C° 0 mm 7 mps 749 mmHg 65%
    17:00 +21°C° 0 mm 7 mps 749 mmHg 66%
    18:00 +19°C° 0 mm 6 mps 749 mmHg 71%
    19:00 +17°C° 0 mm 6 mps 749 mmHg 77%
    20:00 +15°C° 0 mm 5 mps 749 mmHg 82%
    21:00 +14°C° 0 mm 5 mps 749 mmHg 82%
    22:00 +14°C° 0 mm 5 mps 749 mmHg 82%
    23:00 +13°C° 0 mm 5 mps 749 mmHg 83%

    29 May, Tuesday

    Time Temperature Precipitation Wind Pressure Humidity
    00:00 +13°C° 0 mm 5 mps 749 mmHg 81%
    01:00 +13°C° 0 mm 5 mps 749 mmHg 79%
    02:00 +13°C° 0 mm 6 mps 748 mmHg 77%
    03:00 +13°C° 0 mm 6 mps 748 mmHg 78%
    04:00 +13°C° 0 mm 6 mps 748 mmHg 78%
    05:00 +13°C° 0 mm 6 mps 748 mmHg 78%
    06:00 +15°C° 0 mm 6 mps 748 mmHg 77%
    07:00 +16°C° 0 mm 7 mps 748 mmHg 75%
    08:00 +18°C° 0 mm 7 mps 748 mmHg 74%
    09:00 +20°C° 0 mm 7 mps 748 mmHg 72%
    10:00 +20°C° 0 mm 7 mps 748 mmHg 71%
    11:00 +21°C° 0 mm 7 mps 748 mmHg 70%
    12:00 +20°C° 0.2 mm 7 mps 748 mmHg 72%
    13:00 +20°C° 0.2 mm 7 mps 748 mmHg 75%
    14:00 +18°C° 0.2 mm 7 mps 748 mmHg 77%
    15:00 +20°C° 0.1 mm 7 mps 748 mmHg 75%
    16:00 +20°C° 0.1 mm 7 mps 748 mmHg 73%
    17:00 +20°C° 0.1 mm 7 mps 747 mmHg 71%
    18:00 +18°C° 0 mm 7 mps 747 mmHg 72%
    19:00 +19°C° 0 mm 6 mps 747 mmHg 73%
    20:00 +17°C° 0 mm 6 mps 747 mmHg 74%
    21:00 +17°C° 0 mm 5 mps 747 mmHg 75%
    22:00 +16°C° 0 mm 5 mps 747 mmHg 76%
    23:00 +16°C° 0 mm 5 mps 746 mmHg 77%

    30 May, Wednesday

    Time Temperature Precipitation Wind Pressure Humidity
    00:00 +16°C° 0 mm 5 mps 746 mmHg 78%
    01:00 +15°C° 0 mm 5 mps 746 mmHg 80%
    02:00 +15°C° 0 mm 5 mps 746 mmHg 81%
    03:00 +15°C° 0 mm 5 mps 746 mmHg 81%
    04:00 +15°C° 0 mm 6 mps 745 mmHg 81%
    05:00 +15°C° 0 mm 6 mps 745 mmHg 81%
    06:00 +15°C° 0 mm 6 mps 745 mmHg 80%
    07:00 +16°C° 0 mm 6 mps 746 mmHg 78%
    08:00 +17°C° 0 mm 6 mps 746 mmHg 77%
    09:00 +17°C° 0 mm 6 mps 746 mmHg 75%
    10:00 +19°C° 0 mm 6 mps 746 mmHg 74%
    11:00 +19°C° 0 mm 6 mps 746 mmHg 72%
    12:00 +20°C° 0 mm 6 mps 745 mmHg 70%
    13:00 +20°C° 0 mm 6 mps 745 mmHg 67%
    14:00 +21°C° 0 mm 6 mps 745 mmHg 65%
    15:00 +21°C° 0 mm 6 mps 745 mmHg 65%
    16:00 +21°C° 0 mm 5 mps 745 mmHg 65%
    17:00 +21°C° 0 mm 5 mps 744 mmHg 64%
    18:00 +20°C° 0 mm 5 mps 744 mmHg 69%
    19:00 +18°C° 0 mm 4 mps 744 mmHg 73%
    20:00 +17°C° 0 mm 4 mps 744 mmHg 77%
    21:00 +15°C° 0 mm 4 mps 744 mmHg 79%
    22:00 +15°C° 0 mm 4 mps 743 mmHg 80%
    23:00 +14°C° 0 mm 4 mps 743 mmHg 81%
    Show more